Weather History for Rockland, ME

Change the Weather History Date:

Friday, October 14, 2011

  Actual Average Record
Temperature  
Mean Temperature 58 °F -  
Max Temperature 60 °F 53 °F 68 °F (2000)
Min Temperature 57 °F 39 °F 30 °F (2006)
Degree Days  
Heating Degree Days 6    
Growing Degree Days 8 (Base 50)    
Moisture  
Dew Point 54 °F    
Average Humidity 89    
Maximum Humidity 94    
Minimum Humidity 82    
Precipitation  
Precipitation 0.25 in - - ()
Sea Level Pressure  
Sea Level Pressure 29.73 in    
Wind  
Wind Speed 8 mph (NE)    
Max Wind Speed 12 mph    
Max Gust Speed 16 mph    
Visibility 2 miles    
Events      
Averages and records for this station are not official NWS values.
T = Trace of Precipitation, MM = Missing Value Source: NWS Daily Summary

Daily Weather History Graph

Daily Weather History Graph

Search for Another Location

Airport:

Trip Planner

Search our weather history database for the weather conditions in past years. The results will help you decide how hot, cold, wet, or windy it might be!

Date:

Astronomy

Oct. 14, 2011 Rise Set
Actual Time 6:49 AM EDT 5:54 PM EDT
Civil Twilight 6:20 AM EDT 6:23 PM EDT
Nautical Twilight 5:46 AM EDT 6:57 PM EDT
Astronomical Twilight 5:13 AM EDT 7:30 PM EDT
Moon 6:58 PM EDT (10/14) 9:22 AM EDT (10/14)
Length of Visible Light 12h 03m
Length of Day
11h 05m
Waning Gibbous, 94% of the Moon is Illuminated
Oct 14
Waning Gibbous
Oct 19
Last Quarter
Oct 26
New
Nov 2
First Quarter
Nov 10
Full

Hourly Weather History & Observations

Time (EDT) Temp. Dew Point Humidity Pressure Visibility Wind Dir Wind Speed Gust Speed Precip Events Conditions
12:15 AM 57.2 °F 53.6 °F 88% 29.81 in 1.2 mi NNE 5.8 mph - N/A   Overcast
12:35 AM 57.2 °F 53.6 °F 88% 29.82 in 1.8 mi NNE 4.6 mph - 0.01 in   Overcast
12:55 AM 57.2 °F 53.6 °F 88% 29.82 in 2.0 mi NNE 6.9 mph - 0.01 in   Overcast
1:15 AM 57.2 °F 53.6 °F 88% 29.81 in 2.5 mi NNE 9.2 mph - N/A   Overcast
1:35 AM 57.2 °F 53.6 °F 88% 29.81 in 3.0 mi NE 6.9 mph - N/A   Overcast
1:55 AM 57.2 °F 53.6 °F 88% 29.80 in 2.5 mi NNE 8.1 mph - N/A   Overcast
2:15 AM 57.2 °F 53.6 °F 88% 29.81 in 3.0 mi NNE 5.8 mph - 0.01 in   Overcast
2:35 AM 57.2 °F 53.6 °F 88% 29.81 in 3.0 mi NE 6.9 mph - 0.01 in   Overcast
2:55 AM 57.2 °F 53.6 °F 88% 29.80 in 3.0 mi NE 8.1 mph - 0.01 in   Overcast
3:15 AM 57.2 °F 53.6 °F 88% 29.80 in 3.0 mi NE 6.9 mph - N/A   Overcast
3:35 AM 57.2 °F 53.6 °F 88% 29.80 in 3.0 mi NE 5.8 mph - N/A   Overcast
3:55 AM 57.2 °F 53.6 °F 88% 29.79 in 2.5 mi NE 10.4 mph - N/A   Overcast
4:15 AM 57.2 °F 53.6 °F 88% 29.79 in 2.0 mi NE 9.2 mph - N/A   Overcast
4:35 AM 57.2 °F 53.6 °F 88% 29.79 in 2.0 mi NE 8.1 mph - 0.01 in   Overcast
4:55 AM 57.2 °F 53.6 °F 88% 29.79 in 3.0 mi NNE 5.8 mph - 0.01 in   Overcast
5:15 AM 57.2 °F 53.6 °F 88% 29.79 in 2.5 mi NE 8.1 mph - N/A   Overcast
5:35 AM 57.2 °F 53.6 °F 88% 29.79 in 3.0 mi NE 9.2 mph - N/A   Overcast
5:55 AM 57.2 °F 53.6 °F 88% 29.79 in 3.0 mi NE 6.9 mph - N/A   Overcast
6:15 AM 57.2 °F 53.6 °F 88% 29.78 in 2.5 mi NE 9.2 mph - N/A   Overcast
6:35 AM 57.2 °F 53.6 °F 88% 29.78 in 2.5 mi NE 9.2 mph - N/A   Overcast
6:55 AM 57.2 °F 53.6 °F 88% 29.78 in 3.0 mi NE 8.1 mph - N/A   Overcast
7:15 AM 57.2 °F 53.6 °F 88% 29.78 in 1.8 mi NE 9.2 mph - N/A   Overcast
7:35 AM 57.2 °F 53.6 °F 88% 29.78 in 1.5 mi ENE 8.1 mph - N/A   Overcast
7:55 AM 57.2 °F 53.6 °F 88% 29.79 in 2.0 mi ENE 9.2 mph - 0.01 in   Overcast
8:15 AM 57.2 °F 53.6 °F 88% 29.80 in 1.0 mi ENE 6.9 mph - N/A   Overcast
8:35 AM 57.2 °F 53.6 °F 88% 29.79 in 1.0 mi NE 11.5 mph - 0.01 in   Overcast
9:15 AM 57.2 °F 53.6 °F 88% 29.78 in 1.0 mi ENE 6.9 mph - N/A   Overcast
9:35 AM 57.2 °F 53.6 °F 88% 29.77 in 1.2 mi ENE 9.2 mph - N/A   Overcast
9:55 AM 57.2 °F 53.6 °F 88% 29.77 in 1.0 mi ENE 9.2 mph - N/A   Overcast
10:15 AM 57.2 °F 53.6 °F 88% 29.76 in 1.2 mi ENE 9.2 mph - N/A   Overcast
10:35 AM 57.2 °F 55.4 °F 94% 29.75 in 1.2 mi NE 9.2 mph - N/A   Overcast
10:55 AM 57.2 °F 55.4 °F 94% 29.75 in 0.8 mi ENE 9.2 mph - N/A   Overcast
11:15 AM 57.2 °F 55.4 °F 94% 29.74 in 1.0 mi ENE 8.1 mph - N/A   Overcast
11:35 AM 57.2 °F 55.4 °F 94% 29.74 in 0.5 mi NE 6.9 mph - N/A   Overcast
11:55 AM 57.2 °F 55.4 °F 94% 29.73 in 0.5 mi NNE 8.1 mph - N/A   Overcast
12:15 PM 57.2 °F 55.4 °F 94% 29.71 in 0.8 mi NE 8.1 mph - N/A   Overcast
12:35 PM 57.2 °F 55.4 °F 94% 29.70 in 0.8 mi NE 8.1 mph - N/A   Overcast
12:55 PM 57.2 °F 55.4 °F 94% 29.69 in 0.8 mi NE 9.2 mph - N/A   Overcast
1:15 PM 57.2 °F 55.4 °F 94% 29.67 in 0.8 mi NE 8.1 mph - N/A   Overcast
1:35 PM 57.2 °F 55.4 °F 94% 29.66 in 0.8 mi NE 10.4 mph - N/A   Overcast
1:55 PM 57.2 °F 55.4 °F 94% 29.64 in 0.5 mi NE 11.5 mph - N/A   Overcast
2:15 PM 57.2 °F 55.4 °F 94% 29.63 in 0.8 mi NE 10.4 mph - N/A   Overcast
2:35 PM 59.0 °F 55.4 °F 88% 29.63 in 2.5 mi ENE 9.2 mph - 0.01 in   Overcast
2:55 PM 59.0 °F 55.4 °F 88% 29.62 in 1.5 mi ENE 6.9 mph - 0.01 in   Overcast
3:15 PM 59.0 °F 55.4 °F 88% 29.61 in 0.8 mi East 8.1 mph - 0.01 in   Overcast
3:35 PM 59.0 °F 55.4 °F 88% 29.59 in 1.2 mi East 10.4 mph - 0.01 in   Overcast
3:55 PM 59.0 °F 55.4 °F 88% 29.59 in 0.5 mi East 10.4 mph - 0.01 in   Overcast
4:15 PM 59.0 °F 55.4 °F 88% 29.58 in 0.5 mi ENE 10.4 mph - 0.01 in   Overcast
4:35 PM 60.8 °F 55.4 °F 82% 29.56 in 4.0 mi ENE 11.5 mph 16.1 mph 0.03 in   Overcast
4:55 PM 60.8 °F 55.4 °F 82% 29.54 in 3.0 mi ENE 10.4 mph - 0.05 in   Overcast
5:15 PM 60.8 °F 57.2 °F 88% 29.52 in 3.0 mi ENE 9.2 mph - 0.13 in   Overcast
5:35 PM 59.0 °F 55.4 °F 88% 29.52 in 5.0 mi ENE 6.9 mph - 0.19 in   Overcast
5:55 PM 60.8 °F 57.2 °F 88% 29.50 in 3.0 mi East 10.4 mph - 0.21 in   Overcast
6:15 PM 59.0 °F 55.4 °F 88% 29.49 in 4.0 mi East 16.1 mph 20.7 mph 0.06 in   Overcast
6:35 PM 59.0 °F 55.4 °F 88% 29.47 in 5.0 mi East 13.8 mph 18.4 mph 0.15 in   Overcast
6:55 PM 59.0 °F 55.4 °F 88% 29.46 in 1.2 mi ESE 13.8 mph - 0.16 in   Overcast
7:15 PM 59.0 °F 55.4 °F 88% 29.45 in 2.5 mi ESE 12.7 mph - 0.02 in   Overcast
7:35 PM 59.0 °F 55.4 °F 88% 29.44 in 1.2 mi ESE 9.2 mph - 0.03 in   Overcast
7:55 PM 59.0 °F 55.4 °F 88% 29.43 in 0.5 mi ESE 10.4 mph - 0.03 in   Overcast
8:15 PM 60.8 °F 57.2 °F 88% 29.42 in 2.5 mi SE 9.2 mph 17.3 mph 0.01 in   Overcast
8:35 PM 62.6 °F 59.0 °F 88% 29.41 in 5.0 mi SE 11.5 mph 17.3 mph 0.05 in   Overcast
8:55 PM 62.6 °F 57.2 °F 82% 29.39 in 6.0 mi SE 13.8 mph 18.4 mph 0.09 in   Overcast
9:15 PM 62.6 °F 59.0 °F 88% 29.39 in 7.0 mi SE 15.0 mph 23.0 mph 0.01 in   Overcast
9:35 PM 62.6 °F 59.0 °F 88% 29.38 in 5.0 mi SSE 11.5 mph 17.3 mph 0.01 in   Overcast
9:55 PM 62.6 °F 57.2 °F 82% 29.36 in 6.0 mi SSE 12.7 mph 19.6 mph 0.04 in   Overcast
10:15 PM 62.6 °F 57.2 °F 82% 29.35 in 4.0 mi SSE 13.8 mph - N/A   Overcast
10:35 PM 62.6 °F 57.2 °F 82% 29.34 in 5.0 mi SSE 12.7 mph 17.3 mph N/A   Overcast
10:55 PM 62.6 °F 57.2 °F 82% 29.33 in 2.0 mi SSE 15.0 mph 20.7 mph N/A   Overcast
11:15 PM 62.6 °F 57.2 °F 82% 29.32 in 2.5 mi SSE 16.1 mph 21.9 mph N/A   Overcast
11:35 PM 62.6 °F 57.2 °F 82% 29.31 in 2.5 mi South 16.1 mph 23.0 mph N/A   Overcast
11:55 PM 62.6 °F 57.2 °F 82% 29.30 in 1.2 mi South 11.5 mph 19.6 mph N/A   Overcast